N1HUI Weather Reports


time (UTC)temp
F
wind
direction
speed
knots
gust
knots
rain 1hr
in
rain 24hr
in
rain mn
in
humidity
%
barometer
mb
20260504194606 62 207 7.8 0.0 0.00 0.00 0.00 60 1004.4
20260504194517 64 126 1.7 8.7 0.00 0.00 0.00 57 1009.6
20260504193109 62 213 7.8 0.0 0.00 0.00 0.00 60 1004.4
20260504193016 64 200 3.5 7.8 0.00 0.00 0.00 56 1009.7
20260504191604 62 213 7.8 0.0 0.00 0.00 0.00 58 1004.7
20260504191527 65 183 3.5 11.3 0.00 0.00 0.00 53 1009.7
20260504190115 63 212 7.8 0.0 0.00 0.00 0.00 59 1004.7
20260504190014 66 171 3.5 11.3 0.00 0.00 0.00 52 1009.8
20260504184625 62 180 8.7 0.0 0.00 0.00 0.00 58 1004.9
20260504184515 66 174 0.9 9.6 0.00 0.00 0.00 52 1009.9
20260504183054 62 219 7.0 0.0 0.00 0.00 0.00 60 1005.1
20260504183027 66 178 0.9 8.7 0.00 0.00 0.00 54 1010.2
20260504181553 62 184 7.8 0.0 0.00 0.00 0.00 60 1005.3
20260504181518 67 200 5.2 10.4 0.00 0.00 0.00 49 1010.4
20260504180055 61 186 7.0 0.0 0.00 0.00 0.00 60 1005.5
20260504180009 67 156 0.9 8.7 0.00 0.00 0.00 48 1010.5
20260504174554 61 232 9.6 0.0 0.00 0.00 0.00 56 1005.6
20260504174508 67 195 0.9 10.4 0.00 0.00 0.00 50 1010.7
20260504173050 61 227 9.6 0.0 0.00 0.00 0.00 58 1005.6
20260504173019 61 212 9.6 0.0 0.00 0.00 0.00 56 1005.6
20260504173006 66 190 0.9 9.6 0.00 0.00 0.00 50 1010.8
20260504171550 60 225 8.7 0.0 0.00 0.00 0.00 61 1005.8
20260504171506 65 182 1.7 11.3 0.00 0.00 0.00 51 1010.8
20260504081550 35 196 0.0 0.0 0.00 0.00 0.00 83 1012.2
20260504081516 39 331 0.0 0.0 0.00 0.00 0.00 92 1006.9
20260504050001 41 331 0.9 0.0 0.00 0.00 0.00 82 1006.4
20260504044600 42 331 0.0 0.0 0.00 0.00 0.00 80 1006.4
20260504044540 39 196 0.0 0.0 0.00 0.00 0.00 76 1011.8
20260504043101 42 331 0.0 0.0 0.00 0.00 0.00 78 1006.4
20260504043031 39 196 0.0 0.0 0.00 0.00 0.00 76 1011.9
20260504041556 42 331 0.0 0.0 0.00 0.00 0.00 76 1006.3
20260504041528 40 196 0.0 0.0 0.00 0.00 0.00 75 1011.8
20260504040054 43 331 0.0 0.0 0.00 0.00 0.00 75 1006.2
20260504040027 40 196 0.0 0.0 0.00 0.00 0.00 75 1011.6
20260504034553 43 331 0.0 0.0 0.00 0.00 0.00 75 1006.1
20260504034539 40 196 0.0 0.9 0.00 0.00 0.00 75 1011.5
20260504033101 44 279 0.0 0.0 0.00 0.00 0.00 75 1006.0
20260504033024 40 196 0.0 0.0 0.00 0.00 0.00 72 1011.4
20260504031600 44 279 0.0 0.0 0.00 0.00 0.00 73 1005.9
20260504031523 41 196 0.0 0.0 0.00 0.00 0.00 71 1011.4
20260504030051 45 279 0.0 0.0 0.00 0.00 0.00 70 1005.9
20260504030038 41 196 0.0 0.0 0.00 0.00 0.00 70 1011.4
20260504024619 46 279 0.0 0.0 0.00 0.00 0.00 70 1006.0
20260504024523 42 196 0.0 0.0 0.00 0.00 0.00 68 1011.3
20260504023050 47 279 0.0 0.0 0.00 0.00 0.00 68 1005.9
20260504023025 42 196 0.0 0.0 0.00 0.00 0.00 67 1011.4
20260504021553 47 279 0.0 0.0 0.00 0.00 0.00 66 1005.9
20260504021522 43 196 0.0 0.0 0.00 0.00 0.00 66 1011.4
20260504020051 48 279 0.0 0.0 0.00 0.00 0.00 63 1005.9
20260504020020 44 196 0.0 0.0 0.00 0.00 0.00 66 1011.3
20260504014548 49 279 0.0 0.0 0.00 0.00 0.00 63 1005.7
20260504014533 44 196 0.0 0.0 0.00 0.00 0.00 64 1011.2
20260504013101 51 279 0.0 0.0 0.00 0.00 0.00 60 1005.4
20260504013019 45 196 0.0 0.0 0.00 0.00 0.00 65 1011.0
20260504011547 52 279 0.0 0.0 0.00 0.00 0.00 57 1005.3
20260504011518 46 196 0.0 0.0 0.00 0.00 0.00 63 1010.8
20260504010046 52 279 0.0 0.0 0.00 0.00 0.00 53 1005.0
20260504010019 47 196 0.0 0.0 0.00 0.00 0.00 63 1010.6
20260504004559 53 279 0.0 0.0 0.00 0.00 0.00 45 1004.8
20260504004515 48 196 0.0 0.0 0.00 0.00 0.00 61 1010.4
20260504003046 53 279 0.0 0.0 0.00 0.00 0.00 52 1004.7
20260504003025 49 196 0.0 0.0 0.00 0.00 0.00 58 1010.3
20260504001616 54 279 0.0 0.0 0.00 0.00 0.00 50 1004.3
20260504001514 50 196 0.0 0.0 0.00 0.00 0.00 54 1010.1
20260504000044 55 279 0.9 0.0 0.00 0.00 0.00 43 1004.3
20260504000013 51 196 0.0 0.0 0.00 0.00 0.00 45 1009.8
20260503234545 55 281 3.5 0.0 0.00 0.00 0.00 38 1004.1
20260503234529 52 196 0.0 0.0 0.00 0.00 0.00 42 1009.7
20260503233042 56 279 4.3 0.0 0.00 0.00 0.00 38 1003.9
20260503233013 53 196 0.0 0.9 0.00 0.00 0.00 42 1009.5
20260503231550 56 302 4.3 0.0 0.00 0.00 0.00 40 1003.9
20260503231514 53 196 0.0 1.7 0.00 0.00 0.00 43 1009.4
20260503230041 56 305 6.1 0.0 0.00 0.00 0.00 37 1003.8
20260503230014 53 325 0.0 6.1 0.00 0.00 0.00 43 1009.3
20260503224542 56 294 6.1 0.0 0.00 0.00 0.00 38 1003.8
20260503224512 54 307 1.7 8.7 0.00 0.00 0.00 42 1009.3
20260503223041 56 268 5.2 0.0 0.00 0.00 0.00 38 1003.7
20260503223016 54 319 0.0 5.2 0.00 0.00 0.00 42 1009.2
20260503221540 56 305 6.1 0.0 0.00 0.00 0.00 39 1003.7
20260503221514 54 329 0.0 6.1 0.00 0.00 0.00 44 1009.1
20260503220041 56 302 7.8 0.0 0.00 0.00 0.00 38 1003.7
20260503220015 54 318 1.7 8.7 0.00 0.00 0.00 41 1009.2
20260503214538 56 309 9.6 0.0 0.00 0.00 0.00 39 1003.7
20260503214515 55 321 0.0 9.6 0.00 0.00 0.00 42 1009.0
20260503213043 56 330 10.4 0.0 0.00 0.00 0.00 38 1003.6
20260503213011 55 340 0.9 6.1 0.00 0.00 0.00 41 1009.1
20260503211541 55 281 12.2 0.0 0.00 0.00 0.00 39 1003.7
20260503211511 55 281 0.0 4.3 0.00 0.00 0.00 44 1009.0
20260503210039 55 309 10.4 0.0 0.00 0.00 0.00 40 1003.5
20260503210011 55 307 0.0 4.3 0.00 0.00 0.00 42 1009.1
20260503204539 54 310 12.2 0.0 0.00 0.00 0.00 41 1003.4
20260503204510 55 338 1.7 7.0 0.00 0.00 0.00 40 1008.9
20260503203019 56 309 0.9 7.0 0.00 0.00 0.00 43 1008.9
20260503201516 55 324 13.0 0.0 0.00 0.00 0.00 40 1003.6
20260503201512 57 267 1.7 6.1 0.00 0.00 0.00 39 1008.9
20260503200012 57 284 1.7 6.1 0.00 0.00 0.00 43 1008.9
20260503200005 54 324 12.2 0.0 0.00 0.00 0.00 40 1003.6